LUCH 5B

Last updated on Tue Apr 04 2023 00:02:48 GMT+0000 (Coordinated Universal Time)

1 38977U 12061A 23093.23066486 -.00000130 00000+0 00000+0 0 9999 2 38977 7.9225 60.3766 0001900 19.7598 177.8592 1.00271728 38433
UTC large
Height (km)
Speed (km/s)
/
Latitude / Longitude
Inclination (degrees)
Orbital Period (minutes)
Azimuth
Elevation
Range (km)
Doppler Factor

Next 0 passes for location: London (51.5072 / 0.1276)

Sorry there are no passes over London.